Waarnemingen

Advertentie
Mijn weer
Umeå Flygplats, Zweden (2286): temperatuur & dauwpunt: 17.08.2019 15:00:00 - 23.08.2019 15:00:00 (CEST)Umeå Flygplats, Zweden (2286): windsnelheid: 17.08.2019 15:00:00 - 23.08.2019 15:00:00 (CEST)Umeå Flygplats, Zweden (2286): windrichting: 17.08.2019 15:00:00 - 23.08.2019 15:00:00 (CEST)Umeå Flygplats, Zweden (2286): luchtdruk: 17.08.2019 15:00:00 - 23.08.2019 15:00:00 (CEST)Umeå Flygplats, Zweden (2286): zicht: 17.08.2019 15:00:00 - 23.08.2019 15:00:00 (CEST)
Datum & Tijd tt [°C] td [°C] ff [km/u] ff [kn] dd ppp [hPa] vv [km]
23.08.2019 15:00:00 16,8 12,7 16 9 ZZW 1011,1 10
23.08.2019 14:00:00 16,3 12,8 21 11 Z 1011,3 10
23.08.2019 13:00:00 15,2 13,0 13 7 Z 1011,6 10
23.08.2019 12:00:00 14,7 13,6 13 7 Z 1011,8 8
23.08.2019 11:00:00 15,0 12,1 15 8 ZZW 1011,9 10
23.08.2019 10:00:00 15,6 13,1 9 5 Z 1011,7 10
23.08.2019 09:00:00 14,7 13,1 8 4 Z 1012,1 10
23.08.2019 08:00:00 14,2 13,2 5 3 Z 1012,3 10
23.08.2019 07:00:00 13,5 13,3 8 4 ZZO 1012,4 10
23.08.2019 06:00:00 13,3 13,1 5 3 O 1012,8 10
23.08.2019 05:00:00 13,0 12,7 5 3 - 1013,6 10
23.08.2019 04:00:00 13,1 12,2 11 6 Z 1014,4 10
23.08.2019 03:00:00 14,4 13,3 8 4 Z 1015,0 10
23.08.2019 02:00:00 14,6 13,6 9 5 ZZO 1015,6 10
23.08.2019 01:00:00 15,0 13,9 11 6 ZZO 1016,1 10
23.08.2019 00:00:00 14,6 13,3 11 6 ZZO 1016,8 10
22.08.2019 23:00:00 13,7 12,4 9 5 ZZO 1017,5 10
22.08.2019 22:00:00 13,5 11,7 9 5 Z 1018,0 10
22.08.2019 21:00:00 13,2 11,4 8 4 Z 1018,4 10
22.08.2019 20:00:00 13,9 11,2 13 7 ZZW 1018,4 10
22.08.2019 19:00:00 15,3 10,7 15 8 Z 1018,5 10
22.08.2019 18:00:00 16,5 9,2 21 11 ZZW 1018,7 10
22.08.2019 17:00:00 17,4 8,8 21 11 ZZW 1018,7 10
22.08.2019 16:00:00 18,1 10,0 16 9 ZZW 1018,8 10
22.08.2019 15:00:00 19,6 4,5 13 7 WZW 1018,8 10
22.08.2019 14:00:00 18,7 4,8 13 7 ZW 1018,8 10
22.08.2019 13:00:00 18,3 6,2 13 7 WZW 1019,0 10
22.08.2019 12:00:00 17,5 6,4 16 9 W 1019,1 10
22.08.2019 11:00:00 16,9 9,1 11 6 W 1019,1 10
22.08.2019 10:00:00 15,1 9,0 13 7 WNW 1019,1 10
22.08.2019 09:00:00 13,9 8,7 15 8 WNW 1019,1 10
22.08.2019 08:00:00 11,8 7,9 13 7 NNO 1019,0 10
22.08.2019 07:00:00 10,5 7,9 9 5 W 1018,8 10
22.08.2019 06:00:00 8,9 6,9 5 3 WNW 1018,8 10
22.08.2019 05:00:00 7,2 5,2 11 6 WNW 1018,5 10
22.08.2019 04:00:00 8,7 6,7 8 4 ONO 1018,5 10
22.08.2019 03:00:00 8,9 6,7 8 4 WNW 1018,1 10
22.08.2019 02:00:00 9,6 7,2 11 6 WNW 1018,1 10
22.08.2019 01:00:00 10,4 7,3 4 2 WNW 1018,0 10
22.08.2019 00:00:00 11,5 8,2 8 4 WNW 1017,7 10
21.08.2019 23:00:00 10,3 7,4 9 5 WNW 1017,6 10
21.08.2019 22:00:00 11,0 8,6 5 3 WNW 1017,3 10
21.08.2019 21:00:00 13,8 10,4 5 3 W 1016,9 10
21.08.2019 20:00:00 16,6 13,5 4 2 ZZW 1016,7 10
21.08.2019 19:00:00 17,0 13,1 5 3 ZZW 1016,5 10
21.08.2019 18:00:00 17,5 12,2 9 5 Z 1016,4 10
21.08.2019 17:00:00 17,9 12,6 13 7 Z 1016,3 10
21.08.2019 16:00:00 16,7 13,8 13 7 Z 1016,2 10
21.08.2019 15:00:00 16,8 13,3 16 9 ZZW 1016,1 10
21.08.2019 14:00:00 18,7 11,8 21 11 ZZW 1016,3 10
21.08.2019 13:00:00 19,1 12,4 21 11 Z 1015,9 10
21.08.2019 12:00:00 19,5 12,3 16 9 Z 1015,6 10
21.08.2019 11:00:00 18,7 12,4 8 4 ZZO 1015,6 10
21.08.2019 10:00:00 18,0 12,4 5 3 - 1015,5 10
21.08.2019 09:00:00 16,4 12,2 4 2 WZW 1015,2 10
21.08.2019 08:00:00 14,6 12,5 4 2 - 1014,7 10
21.08.2019 07:00:00 12,8 12,8 0 0 N 1014,3 10
21.08.2019 06:00:00 7,6 7,6 0 0 N 1013,8 0,1
21.08.2019 05:00:00 7,2 7,2 4 2 ZZO 1013,5 0,1
21.08.2019 04:00:00 8,1 8,1 0 0 N 1013,0 0,2
21.08.2019 03:00:00 8,4 8,4 0 0 N 1012,6 10
21.08.2019 02:00:00 11,3 11,3 5 3 ZO 1012,3 10
21.08.2019 01:00:00 13,3 13,3 5 3 ZZO 1011,9 4,0
21.08.2019 00:00:00 13,7 13,1 8 4 Z 1011,8 10
20.08.2019 23:00:00 14,4 13,6 9 5 Z 1011,9 10
20.08.2019 22:00:00 14,4 13,3 11 6 Z 1011,8 10
20.08.2019 21:00:00 14,8 13,2 13 7 Z 1011,5 10
20.08.2019 20:00:00 15,8 13,6 18 10 Z 1011,1 10
20.08.2019 19:00:00 16,6 13,7 22 12 ZZW 1010,9 10
20.08.2019 18:00:00 17,1 13,6 24 13 Z 1010,7 10
20.08.2019 17:00:00 17,8 13,5 26 14 Z 1010,6 10
20.08.2019 16:00:00 17,1 13,6 28 15 ZZW 1010,6 10
20.08.2019 15:00:00 17,7 13,4 29 16 Z 1010,3 10
20.08.2019 14:00:00 17,7 13,0 31 17 Z 1010,0 10
20.08.2019 13:00:00 17,8 12,5 26 14 Z 1009,4 10
20.08.2019 12:00:00 18,3 13,6 28 15 Z 1008,8 10
20.08.2019 11:00:00 17,1 12,4 22 12 ZZW 1008,4 10
20.08.2019 10:00:00 17,4 13,1 22 12 Z 1007,9 10
20.08.2019 09:00:00 17,3 13,0 15 8 ZW 1007,5 10
20.08.2019 08:00:00 16,3 13,4 15 8 ZZW 1007,2 10
20.08.2019 07:00:00 15,0 13,4 13 7 ZZW 1006,6 10
20.08.2019 06:00:00 13,2 12,4 9 5 Z 1006,3 10
20.08.2019 05:00:00 11,3 10,5 9 5 Z 1005,8 10
20.08.2019 04:00:00 11,8 11,0 8 4 Z 1005,6 10
20.08.2019 03:00:00 13,1 12,0 9 5 Z 1005,1 3,6
20.08.2019 02:00:00 13,8 12,4 9 5 Z 1004,7 10
20.08.2019 01:00:00 13,9 12,6 13 7 ZZO 1004,5 10
20.08.2019 00:00:00 14,4 12,3 11 6 Z 1004,4 10
19.08.2019 23:00:00 15,0 11,8 9 5 ZZW 1004,3 10
19.08.2019 22:00:00 14,7 12,6 8 4 Z 1003,9 10
19.08.2019 21:00:00 15,4 12,9 18 10 ZZW 1003,6 10
19.08.2019 20:00:00 16,1 13,2 21 11 Z 1003,1 10
19.08.2019 19:00:00 16,8 13,3 24 13 ZZW 1002,7 10
19.08.2019 18:00:00 17,2 13,3 21 11 Z 1002,3 10
19.08.2019 17:00:00 17,1 13,8 22 12 ZZW 1002,1 10
19.08.2019 16:00:00 18,0 14,1 22 12 Z 1001,3 10
19.08.2019 15:00:00 18,6 15,8 24 13 ZZW 1000,5 10
19.08.2019 14:00:00 18,1 16,4 9 5 ZZW 999,9 10
19.08.2019 13:00:00 18,4 15,5 13 7 ZZW 998,7 10
19.08.2019 12:00:00 16,6 15,0 11 6 ZZW 998,3 10
19.08.2019 11:00:00 16,5 14,9 8 4 ZW 997,2 10
19.08.2019 10:00:00 14,9 14,9 8 4 ZZO 997,1 6
19.08.2019 09:00:00 15,1 14,9 9 5 ZZO 997,4 10
19.08.2019 08:00:00 15,0 14,8 8 4 O 998,0 10
19.08.2019 07:00:00 15,1 14,8 15 8 ZO 999,0 10
19.08.2019 06:00:00 15,3 14,8 21 11 ZZO 999,9 10
19.08.2019 05:00:00 15,3 14,7 24 13 Z 1000,5 10
19.08.2019 04:00:00 16,0 15,0 24 13 ZZO 1000,6 10
19.08.2019 03:00:00 15,9 14,8 29 16 ZZO 1000,8 10
19.08.2019 02:00:00 15,5 15,0 18 10 ZO 1001,4 8
19.08.2019 01:00:00 15,6 14,5 15 8 ZO 1002,6 10
19.08.2019 00:00:00 15,7 14,6 21 11 ZO 1003,4 10
18.08.2019 23:00:00 16,0 14,5 16 9 ZO 1003,9 10
18.08.2019 22:00:00 15,9 14,8 15 8 Z 1004,6 10
18.08.2019 21:00:00 15,9 14,8 21 11 Z 1005,2 10
18.08.2019 20:00:00 15,8 14,7 22 12 Z 1005,5 10
18.08.2019 19:00:00 15,7 14,4 26 14 Z 1005,8 10
18.08.2019 18:00:00 15,7 14,7 24 13 Z 1005,9 10
18.08.2019 17:00:00 16,2 15,4 28 15 Z 1005,7 10
18.08.2019 16:00:00 15,9 15,7 24 13 Z 1005,6 10
18.08.2019 15:00:00 15,8 15,5 24 13 Z 1005,9 10
18.08.2019 14:00:00 15,9 15,6 22 12 Z 1006,0 5
18.08.2019 13:00:00 16,3 15,2 22 12 Z 1006,0 10
18.08.2019 12:00:00 16,4 15,3 21 11 Z 1005,8 10
18.08.2019 11:00:00 16,1 15,3 21 11 ZZO 1005,6 10
18.08.2019 10:00:00 16,0 15,5 26 14 Z 1005,3 10
18.08.2019 09:00:00 14,9 14,6 28 15 ZZO 1005,3 7
18.08.2019 08:00:00 14,7 14,4 26 14 ZZO 1005,7 4,9
18.08.2019 07:00:00 15,5 14,4 26 14 ZZO 1005,8 10
18.08.2019 06:00:00 15,6 14,6 24 13 ZZO 1006,3 10
18.08.2019 05:00:00 15,9 14,6 26 14 Z 1006,5 10
18.08.2019 04:00:00 16,1 14,6 22 12 Z 1006,7 10
18.08.2019 03:00:00 16,0 14,5 21 11 Z 1007,0 10
18.08.2019 02:00:00 16,1 14,5 21 11 Z 1007,4 10
18.08.2019 01:00:00 15,9 14,6 13 7 Z 1007,3 10
18.08.2019 00:00:00 15,9 14,3 18 10 Z 1007,2 10
17.08.2019 23:00:00 15,7 13,7 18 10 Z 1007,0 10
17.08.2019 22:00:00 15,7 13,9 16 9 Z 1007,1 10
17.08.2019 21:00:00 15,4 13,6 21 11 Z 1007,3 10
17.08.2019 20:00:00 15,6 12,7 21 11 Z 1007,5 10
17.08.2019 19:00:00 16,4 12,9 24 13 Z 1007,4 10
17.08.2019 18:00:00 16,5 12,7 22 12 Z 1007,5 10
17.08.2019 17:00:00 17,0 12,1 26 14 Z 1007,5 10
17.08.2019 16:00:00 17,6 12,7 26 14 Z 1007,6 10
17.08.2019 15:00:00 18,0 14,5 21 11 Z 1007,7 10

tt = temperatuur
td = dauwpunt
ff = windsnelheid
dd = windrichting
ppp = luchtdruk
vv = zicht

Weerstations in de omgeving